• In Hungary
  • List of Countries
  • For 7 days
  • Water Temperature
  • Satellite Maps
  • Weather Map
  • News
  • Weather Widgets
  • user-avatar
    Login

    Hourly Weather Lobanovskie Vyselki

    Today, 15 August, Wednesday

    Time Temperature Precipitation Wind Pressure Humidity
    00:00 +17°C° 0 mm 2 mps 745 mmHg 79%
    01:00 +17°C° 0 mm 2 mps 745 mmHg 77%
    02:00 +17°C° 0 mm 2 mps 745 mmHg 76%
    03:00 +16°C° 0 mm 2 mps 744 mmHg 75%
    04:00 +17°C° 0 mm 3 mps 744 mmHg 74%
    05:00 +17°C° 0 mm 3 mps 744 mmHg 73%
    06:00 +17°C° 0 mm 3 mps 744 mmHg 72%
    07:00 +18°C° 0 mm 4 mps 744 mmHg 69%
    08:00 +20°C° 0 mm 5 mps 744 mmHg 65%
    09:00 +22°C° 0 mm 5 mps 744 mmHg 61%
    10:00 +23°C° 0.1 mm 6 mps 744 mmHg 59%
    11:00 +26°C° 0.1 mm 6 mps 743 mmHg 58%
    12:00 +27°C° 0.1 mm 6 mps 743 mmHg 57%
    13:00 +28°C° 0.1 mm 6 mps 743 mmHg 55%
    14:00 +29°C° 0.1 mm 6 mps 743 mmHg 53%
    15:00 +29°C° 0.1 mm 7 mps 742 mmHg 51%
    16:00 +29°C° 0 mm 6 mps 742 mmHg 53%
    17:00 +29°C° 0 mm 5 mps 742 mmHg 56%
    18:00 +28°C° 0 mm 4 mps 742 mmHg 59%
    19:00 +27°C° 0.1 mm 4 mps 742 mmHg 63%
    20:00 +25°C° 0.1 mm 4 mps 742 mmHg 66%
    21:00 +23°C° 0.1 mm 4 mps 742 mmHg 70%
    22:00 +22°C° 0.5 mm 4 mps 742 mmHg 75%
    23:00 +21°C° 0.5 mm 3 mps 742 mmHg 79%

    Tomorrow, 16 August, Thursday

    Time Temperature Precipitation Wind Pressure Humidity
    00:00 +20°C° 0.5 mm 3 mps 742 mmHg 84%
    01:00 +19°C° 0.2 mm 2 mps 742 mmHg 85%
    02:00 +19°C° 0.2 mm 2 mps 742 mmHg 87%
    03:00 +18°C° 0.2 mm 2 mps 742 mmHg 89%
    04:00 +18°C° 0.1 mm 2 mps 742 mmHg 90%
    05:00 +18°C° 0.1 mm 2 mps 742 mmHg 91%
    06:00 +18°C° 0.1 mm 2 mps 743 mmHg 92%
    07:00 +19°C° 0 mm 2 mps 743 mmHg 87%
    08:00 +21°C° 0 mm 2 mps 743 mmHg 82%
    09:00 +23°C° 0 mm 2 mps 743 mmHg 77%
    10:00 +24°C° 0 mm 2 mps 743 mmHg 72%
    11:00 +25°C° 0 mm 2 mps 743 mmHg 68%
    12:00 +26°C° 0 mm 2 mps 743 mmHg 63%
    13:00 +26°C° 0.1 mm 2 mps 743 mmHg 62%
    14:00 +26°C° 0.1 mm 2 mps 743 mmHg 62%
    15:00 +26°C° 0.1 mm 2 mps 743 mmHg 62%
    16:00 +26°C° 0.3 mm 2 mps 743 mmHg 65%
    17:00 +26°C° 0.3 mm 2 mps 743 mmHg 67%
    18:00 +25°C° 0.3 mm 2 mps 743 mmHg 70%
    19:00 +24°C° 1 mm 2 mps 744 mmHg 76%
    20:00 +21°C° 1 mm 2 mps 744 mmHg 82%
    21:00 +20°C° 1 mm 2 mps 744 mmHg 88%
    22:00 +19°C° 0.1 mm 2 mps 744 mmHg 89%
    23:00 +19°C° 0.1 mm 2 mps 744 mmHg 91%

    Day after tomorrow, 17 August, Friday

    Time Temperature Precipitation Wind Pressure Humidity
    00:00 +18°C° 0.1 mm 2 mps 744 mmHg 93%
    01:00 +18°C° 0 mm 2 mps 745 mmHg 94%
    02:00 +17°C° 0 mm 2 mps 745 mmHg 95%
    03:00 +17°C° 0 mm 3 mps 745 mmHg 96%
    04:00 +17°C° 0.1 mm 3 mps 745 mmHg 96%
    05:00 +16°C° 0.1 mm 3 mps 745 mmHg 96%
    06:00 +16°C° 0.1 mm 3 mps 746 mmHg 96%
    07:00 +17°C° 0 mm 4 mps 746 mmHg 91%
    08:00 +18°C° 0 mm 4 mps 746 mmHg 86%
    09:00 +19°C° 0 mm 4 mps 747 mmHg 81%
    10:00 +20°C° 0 mm 4 mps 747 mmHg 75%
    11:00 +21°C° 0 mm 4 mps 747 mmHg 69%
    12:00 +23°C° 0 mm 5 mps 747 mmHg 63%
    13:00 +23°C° 0 mm 4 mps 747 mmHg 60%
    14:00 +25°C° 0 mm 4 mps 746 mmHg 58%
    15:00 +25°C° 0 mm 4 mps 746 mmHg 55%
    16:00 +25°C° 0 mm 4 mps 746 mmHg 57%
    17:00 +25°C° 0 mm 3 mps 747 mmHg 59%
    18:00 +24°C° 0 mm 3 mps 747 mmHg 61%
    19:00 +21°C° 0 mm 3 mps 747 mmHg 64%
    20:00 +20°C° 0 mm 3 mps 747 mmHg 67%
    21:00 +18°C° 0 mm 3 mps 747 mmHg 69%
    22:00 +17°C° 0 mm 3 mps 747 mmHg 71%
    23:00 +17°C° 0 mm 3 mps 748 mmHg 72%

    18 August, Saturday

    Time Temperature Precipitation Wind Pressure Humidity
    00:00 +16°C° 0 mm 3 mps 748 mmHg 74%
    01:00 +14°C° 0 mm 3 mps 748 mmHg 76%
    02:00 +14°C° 0 mm 3 mps 748 mmHg 78%
    03:00 +13°C° 0 mm 3 mps 748 mmHg 80%
    04:00 +13°C° 0 mm 3 mps 749 mmHg 81%
    05:00 +14°C° 0 mm 2 mps 749 mmHg 81%
    06:00 +13°C° 0 mm 2 mps 749 mmHg 81%
    07:00 +14°C° 0 mm 3 mps 749 mmHg 75%
    08:00 +17°C° 0 mm 3 mps 750 mmHg 69%
    09:00 +19°C° 0 mm 3 mps 750 mmHg 63%
    10:00 +20°C° 0 mm 3 mps 750 mmHg 57%
    11:00 +21°C° 0 mm 3 mps 750 mmHg 51%
    12:00 +22°C° 0 mm 3 mps 750 mmHg 45%
    13:00 +24°C° 0 mm 3 mps 750 mmHg 44%
    14:00 +24°C° 0 mm 3 mps 750 mmHg 42%
    15:00 +24°C° 0 mm 3 mps 750 mmHg 41%
    16:00 +24°C° 0 mm 2 mps 749 mmHg 44%
    17:00 +24°C° 0 mm 2 mps 749 mmHg 47%
    18:00 +23°C° 0 mm 2 mps 749 mmHg 50%
    19:00 +20°C° 0 mm 2 mps 749 mmHg 53%
    20:00 +19°C° 0 mm 2 mps 749 mmHg 56%
    21:00 +17°C° 0 mm 2 mps 749 mmHg 59%
    22:00 +16°C° 0 mm 2 mps 750 mmHg 61%
    23:00 +15°C° 0 mm 2 mps 750 mmHg 63%

    19 August, Sunday

    Time Temperature Precipitation Wind Pressure Humidity
    00:00 +15°C° 0 mm 2 mps 750 mmHg 65%
    01:00 +14°C° 0 mm 2 mps 750 mmHg 68%
    02:00 +14°C° 0 mm 2 mps 750 mmHg 70%
    03:00 +13°C° 0 mm 2 mps 750 mmHg 72%
    04:00 +13°C° 0 mm 2 mps 750 mmHg 74%
    05:00 +13°C° 0 mm 1 mps 750 mmHg 76%
    06:00 +13°C° 0 mm 1 mps 750 mmHg 78%
    07:00 +15°C° 0 mm 2 mps 750 mmHg 72%
    08:00 +17°C° 0 mm 2 mps 750 mmHg 67%
    09:00 +19°C° 0 mm 2 mps 750 mmHg 61%
    10:00 +20°C° 0 mm 2 mps 750 mmHg 56%
    11:00 +21°C° 0 mm 2 mps 749 mmHg 51%
    12:00 +22°C° 0 mm 3 mps 749 mmHg 46%
    13:00 +22°C° 0 mm 3 mps 749 mmHg 44%
    14:00 +24°C° 0 mm 3 mps 749 mmHg 43%
    15:00 +24°C° 0 mm 3 mps 748 mmHg 41%
    16:00 +24°C° 0 mm 2 mps 748 mmHg 45%
    17:00 +23°C° 0 mm 2 mps 747 mmHg 49%
    18:00 +23°C° 0 mm 2 mps 747 mmHg 53%
    19:00 +20°C° 0 mm 2 mps 747 mmHg 57%
    20:00 +18°C° 0 mm 2 mps 747 mmHg 61%
    21:00 +17°C° 0 mm 2 mps 747 mmHg 64%
    22:00 +16°C° 0 mm 2 mps 747 mmHg 66%
    23:00 +16°C° 0 mm 2 mps 747 mmHg 67%

    20 August, Monday

    Time Temperature Precipitation Wind Pressure Humidity
    00:00 +15°C° 0 mm 2 mps 747 mmHg 69%
    01:00 +15°C° 0 mm 2 mps 747 mmHg 70%
    02:00 +14°C° 0 mm 2 mps 746 mmHg 71%
    03:00 +14°C° 0 mm 2 mps 746 mmHg 73%
    04:00 +14°C° 0 mm 2 mps 746 mmHg 73%
    05:00 +13°C° 0 mm 3 mps 746 mmHg 74%
    06:00 +13°C° 0 mm 3 mps 746 mmHg 75%
    07:00 +16°C° 0 mm 3 mps 746 mmHg 70%
    08:00 +18°C° 0 mm 3 mps 746 mmHg 66%
    09:00 +19°C° 0 mm 3 mps 746 mmHg 61%
    10:00 +21°C° 0 mm 3 mps 746 mmHg 57%
    11:00 +22°C° 0 mm 4 mps 746 mmHg 53%
    12:00 +25°C° 0 mm 4 mps 746 mmHg 48%
    13:00 +25°C° 0 mm 4 mps 745 mmHg 48%
    14:00 +25°C° 0 mm 4 mps 745 mmHg 47%
    15:00 +25°C° 0 mm 4 mps 745 mmHg 47%
    16:00 +25°C° 0 mm 3 mps 745 mmHg 50%
    17:00 +25°C° 0 mm 3 mps 744 mmHg 54%
    18:00 +24°C° 0 mm 2 mps 744 mmHg 58%
    19:00 +23°C° 0.1 mm 2 mps 744 mmHg 63%
    20:00 +20°C° 0.1 mm 2 mps 744 mmHg 68%
    21:00 +19°C° 0.1 mm 2 mps 744 mmHg 73%
    22:00 +18°C° 0.5 mm 2 mps 744 mmHg 78%
    23:00 +18°C° 0.5 mm 2 mps 744 mmHg 83%
    Show more